Regional Weather Roundup
Issued by NWS Kansas City/Pleasant Hill, MO

Home | Current Version | Previous Version | Graphics & Text | Print | Product List | Glossary Off
Versions: 1 2 3 4 5 6 7 8 9 10 11 12 13 14 15 16 17 18 19 20 21 22 23 24 25 26 27 28 29 30 31 32 33 34 35 36 37 38 39 40 41 42 43 44 45 46 47 48 49 50

000
ASUS43 KEAX 302210
RWREAX

WEATHER ROUNDUP FOR EASTERN KANSAS AND NORTHWEST MISSOURI
NATIONAL WEATHER SERVICE KANSAS CITY/PLEASANT HILL MO
400 PM CST FRI JAN 30 2015

KSZ040-057-103>105-MOZ028-029-037-043-302300-
...KANSAS CITY METROPOLITAN AREA...

CITY           SKY/WX    TMP DP  RH WIND       PRES   REMARKS
K.C. INTL      CLOUDY    38  17  42 CALM      30.42F
K.C. DOWNTOWN  PTSUNNY   42  16  34 VRB3      30.43F
LEES SUMMIT    MOSUNNY   41  18  39 VRB3      30.43F
OLATHE - IXD   PTSUNNY   39  22  50 S7        30.43F WCI  34
OLATHE - OJC   PTSUNNY   40  21  46 SW6       30.42F
LAWRENCE       PTSUNNY   41  22  46 S7        30.43F

$$

MOZ001>008-011>017-020>025-030>033-038>040-044>046-053-054-302300-
...NORTHERN AND CENTRAL MISSOURI...

CITY           SKY/WX    TMP DP  RH WIND       PRES   REMARKS
ST. JOSEPH     PTSUNNY   37  20  50 SW6       30.44F WCI  32
MOSBY          CLOUDY    37  18  44 CALM      30.45F
WARRENSBURG    PTSUNNY   37  18  44 CALM      30.45S
WHITEMAN AFB   CLOUDY    39  18  42 VRB1      30.45S
CLINTON        PTSUNNY   43  21  42 SW3       30.46F
SEDALIA        PTSUNNY   40  18  41 CALM      30.45F
WARSAW         NOT AVBL
MARSHALL       PTSUNNY   39  21  48 CALM      30.47F
CHILLICOTHE      N/A     38  17  42 SW5       30.45F WCI  34
MOBERLY        PTSUNNY   37  16  41 CALM      30.45F
KIRKSVILLE     MOSUNNY   35  18  49 SW5       30.44F WCI  31

$$

MOZ041-047>049-056>058-063>065-088>090-097-302300-
...EASTERN AND SOUTHERN MISSOURI...

CITY           SKY/WX    TMP DP  RH WIND       PRES   REMARKS
ST. LOUIS INTL MOSUNNY   39  16  39 CALM      30.47F
SPIRIT OF STL  MOSUNNY   39  15  37 CALM      30.47F
COLUMBIA       MOSUNNY   38  17  42 VRB3      30.45F
JEFFERSON CITY MOSUNNY   41  15  35 CALM      30.47F
MEXICO         MOSUNNY   37  25  60 CALM      30.46F
HANNIBAL       SUNNY     37  14  38 W3        30.46F
ROLLA          SUNNY     41  19  41 N3        30.42F
LEBANON        MOSUNNY   43  12  28 CALM      30.43F
OSAGE BEACH    MOSUNNY   43  18  36 W3        30.45S
SPRINGFIELD    MOSUNNY   47  13  25 CALM      30.42S
BRANSON        PTSUNNY   48  16  27 E5        30.42F
NEVADA         MOSUNNY   41  23  48 CALM      30.45F
JOPLIN         SUNNY     47  21  35 CALM      30.43F
WEST PLAINS    SUNNY     47  14  26 CALM      30.43S

$$

IAZ060-094-KSZ022-034>040-054-083-096-NEZ052-066-093-302300-
...KANSAS...SOUTHEAST NEBRASKA AND IOWA...

CITY           SKY/WX    TMP DP  RH WIND       PRES   REMARKS
TOPEKA         PTSUNNY   41  21  44 SE8       30.42F
MANHATTAN      PTSUNNY   44  25  47 S8        30.40F
EMPORIA        CLOUDY    41  23  48 S7        30.41F
CHANUTE        PTSUNNY   43  23  45 E6        30.43F
WICHITA        CLOUDY    42  25  50 S8        30.40F
OMAHA          PTSUNNY   36  24  62 S13       30.36F WCI  27
LINCOLN        CLOUDY    41  26  55 S14       30.35F WCI  33
FALLS CITY     PTSUNNY   39  23  52 S7        30.40F WCI  34
LAMONI         SUNNY     35  13  40 SW10      30.40F WCI  27
DES MOINES     PTSUNNY   36  12  37 SW7       30.41F WCI  30

$$




USA.gov is the U.S. government's official web portal to all federal, state and local government web resources and services.